Wind_Speed
6 6 6 5 5 5 5 6 7 7 7 7 7 7 7 6 6 6 5 5 4 4 3 3 3 3 3 3 3 3 3 3 4 4 5 4 5 5 4 5 5 5 5 6 6 6 7 7 7 7 9 9 8 7 7 6 5 5 4 4 4 3 3 2 1 2 4 5 6 7 7 8 8 9 9 9 8 7 6 5 5 4 3 3 3
5 5 5 5 5 4 4 4 5 6 6 6 6 6 6 6 6 6 6 5 5 5 4 4 4 3 3 3 3 4 4 4 5 5 5 5 6 6 6 6 6 6 6 6 6 7 7 7 7 7 9 10 11 10 9 8 7 7 6 5 5 4 5 4 3 2 2 4 5 6 7 7 7 7 8 8 9 8 7 7 6 6 5 5 5
4 5 5 5 4 4 4 4 4 4 5 5 5 5 5 5 6 6 7 6 6 6 5 5 5 4 4 4 4 4 5 5 5 6 6 6 7 7 7 7 7 7 7 6 7 7 7 8 8 8 8 9 12 12 11 10 9 9 8 7 6 6 5 5 5 4 2 2 3 4 5 6 6 6 6 7 7 8 8 7 7 6 6 6 7
5 5 5 5 5 5 4 4 4 4 4 4 5 4 4 4 5 6 6 7 7 7 6 6 6 5 5 5 5 5 6 6 6 7 7 7 7 8 8 8 8 9 8 8 8 8 8 8 9 9 9 9 10 12 12 11 11 11 10 8 8 7 7 6 6 7 6 4 2 3 3 4 6 6 7 6 6 7 7 7 8 8 8 8 8
7 6 6 5 5 5 5 5 5 5 5 5 5 5 5 5 5 5 6 7 7 7 7 7 7 7 7 6 6 6 7 7 8 8 8 8 8 8 8 9 9 9 9 9 10 10 9 9 10 10 10 10 10 11 12 12 12 13 12 10 9 8 8 8 8 9 9 7 5 5 5 5 6 7 8 8 8 7 7 8 8 9 9 9 9
8 8 7 7 6 6 6 7 7 7 7 7 6 7 7 7 7 7 7 7 7 7 7 8 8 8 8 8 8 8 8 9 9 9 9 9 9 9 9 9 10 10 10 10 11 11 10 10 11 11 11 11 11 10 11 12 13 13 13 12 11 9 9 10 10 10 11 11 9 8 7 7 7 7 8 10 10 10 9 8 8 8 8 8 9
10 9 8 8 8 8 8 8 8 8 8 9 9 9 9 9 9 9 9 8 8 8 8 8 8 9 9 9 9 9 10 10 10 10 10 10 10 10 9 10 10 11 10 10 11 12 12 11 12 13 12 12 12 12 12 12 12 13 13 13 13 11 10 10 11 11 12 13 12 11 9 8 8 8 8 9 10 10 9 9 9 8 8 8 9
10 10 9 9 8 8 9 9 9 9 10 10 10 11 11 10 10 11 11 11 10 10 10 9 9 9 9 10 10 10 10 11 11 11 12 12 12 11 11 11 11 12 11 10 11 12 13 12 13 14 14 13 13 13 13 13 13 13 14 14 14 14 13 11 10 11 11 13 13 12 11 10 10 10 9 9 10 11 11 10 10 10 10 10 10
11 11 10 9 9 9 9 10 10 10 11 11 12 12 12 12 12 12 12 12 12 12 12 12 11 11 11 11 11 11 11 11 11 11 12 12 12 13 12 12 12 13 12 11 12 13 13 13 14 14 15 15 14 14 14 15 14 14 14 14 15 16 16 15 13 12 12 12 13 13 13 13 12 12 12 11 11 12 13 12 12 12 12 12 12
11 11 11 11 10 10 10 10 11 12 12 13 13 13 14 14 14 14 14 14 14 14 14 14 14 13 13 12 12 12 12 11 11 11 12 12 13 13 13 13 13 14 14 13 13 14 14 14 14 15 16 16 15 15 15 15 15 15 15 15 15 16 17 18 17 15 14 13 14 14 14 14 13 13 13 13 13 13 14 14 14 14 14 14 14
12 12 12 12 11 11 12 12 12 12 13 14 15 15 15 15 15 15 16 16 15 15 15 15 15 15 14 14 14 14 14 13 13 13 13 13 13 14 14 14 13 14 14 15 15 15 16 16 16 16 17 17 17 16 16 16 16 16 16 16 16 17 17 18 19 19 18 17 16 16 16 16 15 14 15 15 14 15 16 15 15 15 15 15 16
12 13 13 12 12 12 13 13 13 14 14 14 15 16 16 16 16 16 16 16 16 16 16 15 15 15 15 15 15 15 15 15 15 15 15 15 15 15 16 16 15 15 15 15 15 15 16 17 17 18 18 18 18 18 18 18 17 17 17 17 17 18 17 18 18 19 20 20 19 18 18 17 16 16 17 17 17 17 17 17 16 16 16 16 17
13 14 14 13 13 13 14 15 15 15 16 15 16 16 17 16 16 16 16 16 16 16 16 15 15 14 14 14 13 13 13 13 13 14 14 14 14 15 16 16 16 16 17 17 17 17 17 17 17 18 18 19 19 19 20 19 19 18 18 18 18 19 19 19 19 19 19 20 21 21 20 19 18 18 19 19 18 19 19 18 18 18 17 17 18
14 14 14 14 14 14 15 16 16 16 16 16 16 17 17 17 16 16 15 14 14 14 13 13 13 12 11 11 10 10 10 10 10 11 12 12 12 13 14 14 15 15 16 17 17 18 18 18 18 18 18 19 19 19 20 20 21 20 19 19 19 19 20 20 20 20 19 20 20 21 21 21 20 20 21 20 19 20 20 20 20 20 19 19 20
15 15 15 15 15 15 16 17 18 17 17 16 16 17 17 16 16 15 14 13 12 12 11 11 11 10 9 9 9 9 9 9 9 10 11 12 12 13 14 14 14 14 15 16 16 17 18 18 19 20 20 20 19 19 19 20 21 21 21 21 21 21 20 21 21 21 21 21 20 21 21 21 21 21 22 21 21 21 21 21 21 21 21 21 21
16 16 16 16 15 15 16 18 18 18 17 16 16 17 16 16 15 14 13 12 11 11 10 10 10 10 10 10 10 10 10 10 11 11 12 13 13 14 15 15 15 15 15 16 16 16 17 17 18 19 21 21 21 20 20 20 20 20 21 22 22 22 22 21 21 21 22 22 21 21 21 21 21 22 22 22 22 22 21 21 22 22 22 22 22
17 17 17 17 16 16 17 18 19 18 17 16 17 17 16 15 15 14 13 12 12 11 11 11 11 11 11 11 11 11 11 12 12 13 13 14 14 14 15 15 15 15 16 16 16 17 17 17 18 18 19 21 21 21 22 21 21 20 21 21 22 22 22 22 22 22 22 22 22 22 22 22 21 21 22 23 23 23 23 22 22 22 23 23 23
19 18 18 17 17 17 18 19 19 18 17 17 18 17 16 16 15 15 14 13 13 12 12 12 12 12 12 12 12 13 13 13 12 12 13 13 13 13 14 14 14 15 15 16 16 17 17 17 18 18 18 19 20 20 21 22 22 22 22 22 22 22 22 22 22 23 23 23 23 23 22 22 22 21 22 23 23 24 24 24 23 23 24 24 24
20 19 19 19 18 18 18 19 19 19 19 19 19 18 17 17 17 16 15 14 14 14 13 13 13 13 13 13 13 13 13 12 12 11 11 11 11 12 12 13 14 14 15 15 15 16 16 17 17 17 18 18 19 19 20 21 22 22 23 23 23 23 23 23 23 23 23 23 23 23 23 23 23 22 22 23 24 24 24 25 24 24 24 25 25
20 21 21 21 20 19 19 20 20 21 21 21 20 19 19 18 18 17 16 16 16 15 15 14 14 15 15 14 13 13 13 12 11 11 9 9 9 10 11 12 12 12 13 14 14 14 15 16 16 16 17 17 18 18 19 20 20 21 23 24 25 25 24 24 24 24 24 24 24 24 24 23 23 23 23 24 24 24 25 25 25 25 25 25 25
22 22 22 22 21 21 21 21 21 22 23 23 22 21 20 20 19 19 18 17 17 16 16 16 16 16 15 14 13 13 12 11 11 10 9 8 8 9 10 11 11 11 11 11 12 13 13 14 14 15 16 17 17 18 18 19 19 20 21 23 25 26 26 26 25 25 25 25 25 25 25 25 25 24 23 24 24 24 25 25 25 25 25 26 26
23 23 23 23 22 22 22 22 22 24 25 25 24 23 22 21 20 20 19 18 18 17 17 17 16 16 16 15 14 13 12 11 11 10 9 8 8 9 10 10 11 10 10 10 11 11 12 13 13 13 14 16 16 17 18 18 18 19 20 21 23 24 26 27 27 27 26 26 26 26 26 26 26 25 24 24 25 24 25 25 25 25 25 26 26
24 24 25 25 23 23 23 23 24 26 27 27 26 24 23 22 21 21 20 20 19 18 18 18 17 17 16 15 15 14 12 12 11 11 10 10 9 9 10 11 11 11 11 10 11 11 12 12 13 13 14 15 16 16 17 18 19 19 20 20 21 23 24 26 28 28 28 28 27 27 28 27 26 26 26 25 25 25 25 25 25 25 25 26 26
26 26 26 25 24 24 24 24 26 28 29 29 28 26 24 23 23 22 22 21 20 20 19 19 18 18 17 16 15 14 13 13 12 12 11 11 11 11 11 12 12 13 13 12 12 13 13 13 14 14 14 15 16 16 17 18 19 19 20 21 21 22 23 24 26 28 29 30 29 28 29 28 27 28 27 26 26 26 26 26 26 25 25 25 25
28 28 26 26 26 26 27 26 27 30 31 31 29 27 26 25 24 24 23 23 22 21 20 20 19 19 18 17 16 15 14 14 13 13 13 13 13 13 13 14 14 15 15 15 15 15 15 16 16 16 15 16 17 17 18 19 20 20 21 21 21 22 22 23 25 26 28 30 31 30 30 29 29 30 29 28 28 27 27 27 26 26 25 25 25
30 29 28 27 28 29 29 27 28 30 33 33 31 29 27 26 26 25 25 24 23 23 22 21 20 20 19 17 16 16 15 15 15 14 14 14 15 16 16 16 17 17 17 18 18 18 17 18 19 19 18 18 18 19 19 20 21 21 22 22 22 23 23 23 24 25 27 29 31 31 31 30 30 31 31 30 29 29 28 28 27 27 26 26 26
32 30 29 29 29 30 30 29 28 31 34 34 33 31 29 28 28 27 26 25 25 24 23 22 21 20 19 18 17 17 16 16 16 16 16 16 17 18 19 19 20 20 19 20 21 21 20 20 21 21 20 20 20 21 21 22 23 23 24 24 24 23 23 24 24 25 26 28 30 31 31 31 31 32 32 31 31 30 29 29 29 28 27 27 26
33 31 31 30 31 31 31 30 30 32 35 35 34 32 31 30 29 28 27 27 26 25 24 23 22 21 20 19 18 17 17 17 17 17 17 18 19 20 20 21 22 22 22 22 22 23 23 23 22 23 23 22 22 23 23 23 24 24 25 26 25 25 24 24 25 26 27 28 29 30 30 30 32 33 32 32 32 31 30 30 30 29 28 28 27
34 33 34 32 33 33 32 31 31 33 36 36 36 34 32 31 30 29 29 28 27 27 26 24 23 22 21 20 19 18 18 17 17 17 17 18 19 19 19 20 21 22 23 23 23 24 25 24 24 24 24 24 24 25 25 25 25 26 26 27 27 27 25 25 26 27 28 29 29 30 30 31 32 33 32 33 33 32 32 31 31 30 29 28 28
37 36 36 35 36 35 33 32 32 35 37 38 37 36 34 32 31 31 30 29 28 28 27 25 24 23 22 20 19 18 18 17 17 17 17 17 18 18 19 20 20 21 22 23 24 24 24 24 24 24 24 24 25 26 27 27 27 27 28 28 29 29 27 26 27 29 30 30 30 30 31 31 33 33 32 33 33 33 33 32 31 31 30 29 29
39 39 38 38 39 37 35 34 34 37 39 39 38 37 35 33 32 32 32 31 30 29 28 27 25 24 23 21 20 19 18 18 17 16 16 16 17 18 19 19 19 20 21 22 22 23 23 23 23 23 24 25 26 27 28 28 29 29 29 29 30 30 29 28 29 31 32 32 32 32 32 33 33 33 34 34 34 33 32 32 32 32 32 30 30
42 41 41 42 41 39 37 36 37 38 40 41 40 38 36 35 34 33 33 32 31 30 29 28 26 25 24 22 20 20 19 18 18 17 16 17 17 18 18 18 19 19 19 20 20 21 22 22 23 23 24 26 27 28 29 30 29 29 30 31 31 31 30 29 30 32 34 34 34 34 34 35 35 35 35 35 34 33 32 33 34 34 33 32 32
43 43 44 45 42 41 40 40 39 40 41 42 41 40 38 36 35 34 34 33 32 31 30 29 28 27 24 22 21 20 20 19 19 19 18 18 18 18 18 19 20 20 19 19 19 19 20 21 23 24 25 27 28 29 30 31 30 29 30 32 32 32 32 31 32 34 36 37 37 36 36 37 37 37 36 35 35 34 33 34 35 35 34 33 33
45 45 46 46 45 43 43 42 42 41 42 43 43 41 39 38 36 35 34 33 33 32 31 31 29 27 25 23 22 21 21 21 21 20 20 20 19 19 19 20 20 21 20 20 20 20 21 22 23 25 26 28 29 30 30 31 32 31 31 32 33 33 34 34 35 36 38 39 40 39 38 38 39 39 38 36 36 35 34 35 36 35 35 34 32
47 47 47 48 48 47 45 44 43 43 42 44 44 42 40 39 38 36 35 34 34 33 32 32 30 28 26 24 24 23 23 22 22 22 22 21 21 21 21 21 21 21 21 21 22 22 23 23 24 26 27 28 29 30 30 30 32 32 32 33 34 34 36 37 37 38 39 41 42 43 42 40 40 40 39 38 37 37 36 36 36 36 35 35 33
49 49 49 50 51 49 47 46 45 44 43 45 45 44 43 41 39 37 36 35 35 34 33 33 31 29 27 26 25 25 24 24 24 23 23 23 23 23 23 23 23 22 22 22 23 24 24 25 26 27 27 28 29 29 30 31 32 32 33 34 35 36 37 39 40 40 40 42 44 44 44 42 40 40 40 39 38 38 38 37 37 36 36 36 35
51 51 52 52 52 51 50 49 47 45 45 47 47 46 45 42 40 38 37 36 35 35 34 34 32 30 28 27 26 26 25 25 25 25 25 24 24 25 25 25 25 24 23 23 24 25 25 26 27 28 28 28 28 29 30 31 33 34 34 35 37 38 38 40 41 41 41 42 44 45 45 43 41 39 40 41 40 39 39 39 38 37 36 36 37
52 53 54 54 53 52 52 51 49 48 48 48 49 48 46 44 41 40 38 37 36 35 35 35 33 31 30 28 27 27 26 26 26 26 26 26 26 26 27 27 27 27 26 25 25 25 26 26 27 28 29 29 29 29 30 32 34 35 35 36 38 39 39 41 42 43 42 43 44 45 46 44 42 41 41 42 43 41 40 39 39 38 37 36 37
54 54 56 56 55 54 53 52 52 50 50 50 51 51 48 45 42 40 38 37 36 36 36 35 34 33 31 29 28 28 27 27 27 27 27 27 27 27 27 28 28 28 28 27 27 27 27 28 28 28 30 30 30 30 31 33 35 36 37 37 39 40 41 42 43 44 44 44 45 45 47 47 44 43 44 45 46 45 42 40 39 38 37 37 37
56 55 57 57 55 54 53 53 53 52 52 52 53 51 48 44 41 40 38 37 37 38 38 37 35 33 31 29 28 28 28 28 27 28 28 27 27 27 27 28 29 29 29 29 29 30 30 30 29 30 30 30 31 31 32 34 36 37 38 39 40 42 43 43 44 45 45 46 47 45 46 48 46 45 46 47 47 48 45 41 40 39 37 37 38
57 55 56 57 56 55 55 54 54 54 53 53 52 50 47 43 41 39 38 39 40 40 39 37 35 33 32 29 28 29 29 28 29 30 29 28 27 27 28 29 30 30 30 30 31 31 32 32 32 33 33 32 33 33 33 35 37 38 39 41 42 43 44 45 45 45 46 47 48 47 47 48 48 46 46 47 46 48 48 43 41 40 39 38 38
56 54 54 55 55 55 55 55 55 55 54 53 52 49 46 43 42 42 42 43 42 41 38 36 35 33 31 29 29 30 30 30 30 31 30 29 29 29 30 31 31 31 31 31 32 32 33 33 34 35 36 36 36 36 36 36 37 38 40 42 43 43 44 45 46 46 47 47 48 48 48 49 49 48 48 48 47 47 48 47 45 42 40 39 38
55 53 53 53 54 54 55 55 55 55 54 53 51 48 45 44 45 45 45 44 42 40 38 36 34 32 30 30 30 31 32 31 31 31 30 30 30 31 31 31 32 32 32 32 33 33 34 34 34 35 36 37 37 38 37 38 39 40 41 43 44 44 44 45 45 45 46 48 48 48 48 48 49 50 49 48 48 47 47 47 48 46 42 40 39
54 52 51 52 53 53 54 55 55 54 54 52 50 48 46 46 47 47 46 44 41 39 38 36 33 32 31 31 33 34 33 32 32 32 32 32 32 32 32 32 32 32 33 33 34 34 34 34 35 35 36 37 37 37 37 39 40 41 43 44 45 46 46 45 44 44 46 49 50 49 48 48 49 51 50 48 48 49 47 45 47 49 46 42 41
53 51 50 50 51 52 54 55 54 53 52 51 50 49 48 48 48 47 45 43 40 39 37 35 34 34 34 35 36 35 33 32 33 33 33 34 34 33 32 33 33 33 33 34 34 35 35 36 37 37 37 37 37 38 38 39 41 42 44 45 47 48 48 47 46 46 46 48 50 50 49 49 50 52 51 48 48 48 48 46 45 47 47 44 43
53 50 49 50 51 53 54 54 54 52 51 50 50 50 49 49 48 46 44 42 40 39 38 37 37 37 38 39 37 34 33 33 34 35 35 35 34 33 33 33 34 34 35 35 35 36 37 38 39 39 38 38 39 39 39 41 42 43 45 46 48 50 51 51 51 50 48 47 49 50 49 48 49 51 52 51 50 49 49 46 45 45 44 41 42
50 49 48 50 52 53 54 54 53 52 51 51 50 50 49 48 47 45 44 43 42 41 40 40 40 40 40 40 37 34 34 34 36 36 36 35 35 34 34 34 35 35 36 36 37 38 39 39 40 40 40 40 40 40 41 42 43 45 46 48 50 52 54 55 55 54 52 48 48 50 50 48 48 50 52 52 52 51 50 47 47 45 41 39 41
48 48 49 50 52 53 54 54 53 52 52 52 51 50 49 48 46 45 44 43 42 42 42 42 41 41 42 40 37 35 35 36 37 37 36 36 35 35 35 35 36 37 37 38 38 39 40 40 40 40 41 41 41 41 42 43 44 46 48 50 52 54 56 58 59 59 57 53 51 50 50 50 50 49 51 52 52 52 51 49 48 47 45 45 44
48 49 50 51 52 53 54 55 55 54 53 53 52 51 50 48 47 46 45 44 43 43 44 43 43 43 42 41 38 36 36 37 38 37 37 36 36 36 36 36 37 38 38 39 40 40 41 41 40 40 41 41 42 42 43 44 46 48 50 52 54 57 59 61 61 61 60 58 55 52 52 52 51 49 50 52 52 51 50 49 50 50 49 49 46
50 51 51 52 53 54 55 55 55 54 53 53 53 51 50 49 48 46 45 44 44 45 45 45 44 44 43 42 39 38 38 38 38 38 37 37 37 37 37 37 38 39 40 40 41 41 42 41 41 40 40 41 42 43 44 45 47 49 52 54 57 60 62 62 61 61 61 61 59 57 55 55 54 52 50 51 53 51 48 48 51 52 53 52 50
52 53 53 53 53 54 54 53 53 53 53 53 52 51 50 49 48 47 45 45 45 46 46 46 45 45 44 42 41 40 39 39 39 38 37 38 38 38 38 38 39 40 41 41 42 42 42 42 41 41 41 41 42 43 45 46 49 51 54 57 60 61 61 61 60 60 62 63 63 62 60 59 58 56 53 53 54 53 49 48 50 53 52 49 47
Wind_Direction
152 151 144 144 146 149 154 155 155 156 160 160 161 164 165 167 169 174 179 186 190 200 211 222 230 235 243 248 250 253 260 265 268 270 277 284 286 290 294 300 309 317 322 326 329 327 322 319 311 295 284 280 281 287 294 298 302 301 300 298 293 287 285 290 317 22 29 21 10 360 359 5 12 18 21 24 26 29 30 29 34 33 33 29 8
162 157 151 147 144 148 155 156 154 153 156 160 167 173 179 181 181 182 186 192 195 201 209 219 228 236 244 251 256 260 265 269 271 275 282 286 288 292 294 297 301 304 309 315 318 318 318 316 315 308 296 287 283 282 286 293 297 296 297 296 290 284 284 286 290 309 28 30 20 9 359 355 355 2 10 16 19 24 26 29 38 42 39 35 24
188 176 174 170 164 164 170 171 168 160 157 158 163 176 189 199 200 198 198 200 204 208 213 220 226 233 241 248 257 264 268 270 273 277 281 285 287 291 294 294 295 296 299 304 306 307 311 312 312 310 305 298 290 286 285 290 293 291 293 297 293 288 287 287 285 281 291 6 20 14 5 356 347 346 351 1 6 10 13 15 18 20 15 10 6
218 206 199 195 192 191 194 198 201 193 184 176 172 177 189 208 218 219 216 213 214 216 220 226 231 234 238 243 251 259 265 270 272 275 278 280 283 286 289 291 293 293 295 298 299 300 304 307 308 307 305 303 297 293 290 290 291 290 290 292 294 293 292 289 287 282 280 287 315 333 343 345 344 342 338 340 348 352 353 355 353 350 345 341 340
227 225 219 213 211 211 214 220 225 223 219 211 203 199 200 210 223 230 232 230 227 226 227 230 234 237 240 243 246 252 258 264 268 271 274 277 280 284 287 289 291 291 294 297 297 297 299 301 302 303 302 301 299 296 293 290 289 290 290 288 289 292 292 290 288 288 287 286 290 300 311 321 331 338 336 333 334 336 339 345 345 339 334 329 326
231 228 227 227 229 228 228 232 236 238 238 236 231 226 222 219 223 229 234 237 240 239 238 238 239 241 242 244 245 248 252 257 262 265 269 271 275 278 281 285 287 288 291 295 296 295 297 297 297 297 298 299 298 295 292 289 287 287 289 288 285 284 287 288 288 290 292 290 289 292 299 310 319 329 338 337 332 333 337 342 340 335 333 325 318
238 235 234 233 237 239 239 240 242 244 245 246 245 243 238 232 230 230 232 234 239 242 245 246 247 248 248 249 248 248 250 254 258 261 265 267 269 271 274 277 281 284 287 290 291 292 294 294 293 292 292 293 295 295 292 288 286 284 285 286 285 280 277 281 285 289 291 291 292 292 294 300 308 315 326 331 327 328 333 335 331 328 325 318 314
239 242 243 240 240 242 243 246 249 251 250 248 247 246 244 242 239 236 236 236 237 239 241 244 247 251 253 253 253 252 251 254 257 261 265 267 269 270 271 273 276 279 282 283 284 286 288 290 290 290 290 290 291 292 292 290 288 285 283 283 284 282 277 274 278 283 286 289 291 290 290 292 297 302 307 315 316 318 321 321 320 319 317 313 314
238 243 248 248 247 248 248 250 253 255 255 253 248 244 242 242 243 242 240 239 239 240 241 242 244 246 250 253 256 257 257 259 261 264 267 270 273 274 275 276 277 278 279 278 278 279 280 282 284 285 286 286 286 286 287 288 288 287 285 283 283 282 281 278 275 276 279 283 286 286 287 288 291 294 297 302 306 309 309 310 313 315 314 313 313
238 242 248 253 255 257 257 256 257 258 257 257 255 249 243 239 240 242 243 242 242 242 243 244 245 246 247 250 253 257 259 262 264 267 270 274 276 279 280 280 280 281 282 280 277 276 276 275 275 276 277 279 280 281 281 283 285 285 286 284 282 280 282 282 279 275 274 277 280 283 284 286 290 292 295 296 298 300 300 303 307 308 309 310 310
238 243 246 252 256 261 265 266 266 264 263 260 258 255 248 242 238 238 240 243 244 245 245 246 248 249 250 251 253 256 258 261 264 267 270 273 276 279 281 282 282 283 284 284 282 280 279 277 275 274 273 274 275 276 278 278 279 281 283 283 281 279 280 281 280 278 276 275 277 279 282 286 289 292 293 293 294 294 295 298 301 302 303 305 305
238 243 247 252 257 263 268 272 273 272 269 263 258 255 251 247 242 238 236 238 241 244 247 248 250 252 254 255 256 258 261 264 266 268 270 272 274 276 278 279 280 280 281 282 282 282 281 281 280 278 276 275 275 274 274 275 275 276 278 279 279 279 279 279 279 279 279 278 278 278 281 285 288 290 290 290 292 292 294 297 298 298 299 300 300
240 244 248 252 257 263 268 272 273 271 268 262 256 251 247 245 244 241 237 235 236 239 243 246 249 251 253 255 257 260 263 266 269 271 273 274 276 277 277 278 278 278 277 277 277 277 278 279 279 280 279 278 277 276 274 274 274 274 275 275 276 277 278 278 278 279 279 279 279 279 280 282 284 286 286 288 291 293 295 296 295 295 296 297 297
241 245 249 252 257 262 267 271 271 269 264 258 250 245 242 240 240 240 238 234 232 232 233 236 241 244 247 249 252 255 259 263 268 272 276 278 280 282 282 283 284 283 281 280 278 277 275 274 275 275 276 276 277 277 277 276 275 274 274 274 274 275 276 277 278 278 278 278 279 280 280 280 281 282 283 286 288 291 294 295 295 296 297 298 299
240 246 250 253 257 261 266 270 270 267 260 251 244 238 235 234 234 235 235 232 228 225 224 226 229 233 237 240 244 248 253 258 264 269 274 278 281 283 285 286 288 289 289 287 285 283 279 276 274 272 271 272 272 274 275 276 276 276 275 274 274 275 276 276 277 277 276 276 277 278 279 279 279 280 282 284 285 287 289 291 293 294 296 298 300
242 245 250 252 255 261 267 270 269 265 256 244 236 232 230 229 229 230 232 231 229 226 225 226 228 231 234 238 242 247 252 257 263 268 272 276 279 282 284 286 288 289 288 288 288 287 285 283 279 275 272 271 270 270 271 273 275 276 275 274 274 274 275 276 276 277 276 276 277 277 277 279 279 280 281 282 283 284 286 287 289 291 293 294 297
244 246 249 252 255 260 265 268 268 261 250 238 229 226 226 226 226 227 230 232 234 233 233 235 236 237 239 242 245 249 252 256 260 265 270 274 278 281 284 286 287 287 287 287 287 287 286 285 284 281 277 275 273 271 270 271 272 275 276 275 274 273 273 274 275 275 276 277 277 277 277 278 278 279 281 281 282 283 284 284 286 288 289 291 294
247 248 251 254 255 258 263 265 264 256 244 234 227 224 223 225 226 228 230 234 238 240 241 243 245 245 246 249 252 254 256 258 260 262 267 272 277 281 283 284 284 285 285 285 285 286 286 286 285 284 284 283 282 279 275 274 273 273 275 277 277 276 274 274 274 275 275 277 278 278 278 278 278 279 280 281 282 283 283 284 284 286 287 289 291
249 250 252 254 254 257 262 264 260 250 240 232 227 225 224 225 228 229 231 236 240 243 245 246 249 252 254 255 258 261 262 263 264 265 267 272 278 281 282 282 281 281 283 285 286 287 287 287 287 288 289 288 288 287 284 281 278 275 273 275 276 277 277 276 276 275 276 277 278 279 280 279 279 279 279 279 280 282 283 284 284 284 285 287 289
248 249 250 252 254 257 261 262 256 247 237 232 229 227 226 227 230 231 232 237 241 244 246 248 252 256 259 261 262 263 266 267 268 269 271 273 279 283 284 283 283 282 282 285 287 288 289 290 290 291 291 291 290 289 287 286 283 279 275 273 273 274 276 277 278 278 278 278 279 280 281 281 280 280 279 279 280 281 282 283 283 284 285 286 288
247 249 249 250 252 256 259 259 253 245 238 232 230 228 229 230 232 234 234 237 240 244 246 250 254 258 262 263 263 263 264 266 266 269 271 275 279 282 284 285 286 284 283 285 288 290 291 292 293 293 294 293 292 291 290 289 287 284 279 276 274 274 274 275 276 276 277 277 278 279 280 280 280 281 281 280 280 281 281 282 283 284 285 286 287
250 250 251 250 250 252 256 257 252 245 238 233 232 231 231 233 236 238 238 239 241 243 247 251 255 258 260 261 261 260 260 261 262 266 269 273 275 277 281 282 284 284 284 285 288 291 291 294 295 295 295 294 293 293 292 291 290 287 284 281 280 278 277 275 274 274 274 274 275 276 276 276 278 280 280 280 280 280 280 281 282 283 285 286 287
252 251 251 251 252 253 257 258 252 244 237 234 233 233 234 235 239 241 242 243 244 245 247 251 253 254 254 255 257 257 255 256 259 263 266 270 271 272 275 278 281 283 284 284 286 288 289 291 292 294 294 295 295 294 294 293 292 289 286 285 284 283 281 279 277 275 273 272 272 273 274 274 276 277 277 277 278 278 279 280 281 282 284 286 287
251 250 251 254 254 254 256 256 250 243 237 234 234 234 235 237 240 243 244 245 246 247 249 250 251 250 250 250 251 252 252 254 257 260 264 268 269 269 271 274 278 280 283 283 283 284 285 286 287 289 291 293 294 294 294 294 294 291 289 288 287 287 285 283 280 278 275 273 272 271 272 275 276 275 275 276 276 277 277 278 279 281 282 284 286
251 251 251 252 252 252 253 254 249 241 235 234 233 234 236 238 240 243 244 245 247 248 249 250 249 248 248 248 248 248 250 253 255 258 261 265 268 270 271 273 275 278 281 281 281 281 282 284 284 284 286 289 291 292 292 293 293 292 291 291 290 289 289 286 283 280 276 274 272 270 270 272 273 273 274 274 274 275 275 276 277 278 280 282 284
252 252 251 250 250 251 253 253 248 239 234 233 233 234 236 237 240 242 243 245 246 248 248 247 246 246 247 247 249 249 251 253 255 257 260 263 266 269 271 272 273 275 277 279 280 280 280 281 283 284 285 286 287 289 289 291 292 292 292 291 290 290 291 290 287 284 280 276 273 271 270 271 272 273 274 274 274 273 274 275 275 276 278 279 281
252 253 253 252 251 251 253 253 247 237 233 232 233 234 235 237 239 241 242 243 245 246 246 245 244 245 246 248 250 252 254 255 257 259 261 264 266 267 270 271 272 272 272 275 277 278 278 278 280 283 284 284 285 286 287 288 290 292 291 290 289 289 289 291 289 286 282 279 275 273 271 271 272 272 274 274 273 273 273 274 274 275 276 277 279
253 253 254 253 251 251 253 254 248 237 232 232 233 234 234 236 239 240 241 242 243 244 243 242 243 243 245 248 251 254 256 258 260 263 265 267 268 269 271 271 272 272 270 270 272 274 276 276 278 280 283 284 285 286 286 287 288 289 289 288 287 286 287 289 289 287 283 280 278 275 273 272 271 271 273 272 272 272 272 273 273 274 275 276 278
254 253 252 251 251 250 251 253 248 238 233 232 232 233 234 235 238 239 239 240 241 242 241 240 241 242 245 248 251 254 257 260 263 266 268 269 270 272 273 273 273 273 271 269 268 269 271 273 276 278 280 282 284 286 287 288 287 287 286 285 285 285 285 285 287 286 282 280 278 278 276 273 271 271 272 271 272 273 272 272 273 274 274 275 277
254 252 251 249 249 249 249 250 246 239 234 232 232 232 234 234 236 238 238 239 239 239 239 239 240 242 245 248 251 255 258 262 264 266 267 268 271 274 276 276 276 273 271 269 267 267 268 269 272 274 276 278 281 283 285 286 286 285 284 284 283 283 284 285 286 285 282 280 279 279 277 274 272 272 271 271 273 273 272 271 272 273 274 274 276
252 251 250 248 247 248 248 247 245 240 235 233 232 232 233 234 235 237 238 238 238 238 237 237 239 242 244 248 253 257 260 262 262 261 262 265 271 275 278 279 278 274 271 268 267 267 268 269 271 272 274 275 277 280 281 282 282 283 283 283 282 282 284 286 286 285 283 281 281 281 278 275 274 272 271 271 271 271 271 271 272 272 272 272 273
249 249 249 247 246 247 247 246 243 239 235 233 232 233 234 234 235 236 237 238 238 237 237 237 238 241 244 248 253 257 260 260 258 257 259 264 270 275 280 282 281 277 273 270 268 267 268 270 271 272 273 275 277 279 279 279 278 279 280 281 281 282 284 284 284 283 283 282 281 280 279 277 276 274 272 271 269 268 268 269 270 271 271 271 272
247 247 247 247 246 246 246 246 243 239 236 233 232 233 234 235 235 235 235 237 237 237 236 237 238 240 244 249 253 256 256 255 255 255 258 263 268 274 280 283 284 282 279 274 270 267 266 265 267 269 272 275 276 278 280 281 279 278 279 280 282 283 283 283 282 282 283 283 281 280 278 277 277 275 274 272 268 266 266 265 267 269 271 272 274
247 246 246 247 247 246 245 245 245 242 238 234 233 234 235 236 236 235 236 237 237 236 236 237 239 241 245 249 252 253 252 251 252 254 257 262 268 274 279 283 284 285 283 280 275 271 269 266 266 268 270 273 275 276 278 280 280 279 279 280 282 283 283 283 282 283 283 283 282 281 278 277 277 275 274 272 268 264 263 263 265 267 268 270 273
247 246 246 247 246 245 245 245 245 244 240 236 233 234 235 236 236 236 235 236 237 236 236 237 239 242 245 249 251 251 250 249 250 253 257 261 267 272 277 281 284 285 284 282 279 276 274 272 271 271 272 273 274 275 277 278 279 279 279 280 282 283 284 284 284 283 283 282 281 281 279 276 275 273 271 270 268 265 262 263 263 264 265 267 269
246 246 246 247 246 246 246 245 245 244 240 237 234 233 235 236 236 235 235 236 237 237 238 238 240 242 246 249 249 249 248 248 250 253 257 261 267 271 275 279 282 283 283 282 281 280 278 276 275 276 276 276 275 275 277 279 280 280 280 281 282 284 285 286 285 285 283 282 281 280 278 276 273 270 269 267 266 265 264 264 263 263 264 265 266
245 245 246 246 246 247 247 246 244 242 239 236 235 234 234 235 235 235 235 235 237 238 239 240 241 243 246 249 248 247 247 248 251 255 259 263 268 272 275 277 279 281 282 282 282 281 280 279 278 279 279 279 278 277 276 278 280 280 280 281 283 285 285 286 286 285 283 282 281 280 278 276 272 267 265 265 264 263 263 263 264 264 264 265 266
245 244 245 246 246 246 247 246 243 240 238 236 235 234 234 234 234 234 234 235 236 237 239 241 243 245 247 249 249 248 247 249 253 257 262 266 270 273 275 277 278 280 282 283 283 281 279 279 279 280 281 281 280 278 276 276 277 279 280 282 283 283 284 285 285 285 284 281 280 279 277 275 271 266 264 264 263 262 261 261 263 265 265 266 265
245 244 244 245 245 245 246 245 243 240 238 235 234 233 233 234 234 234 235 236 237 238 239 241 243 245 247 249 249 249 250 251 255 260 264 268 271 274 276 277 278 279 282 283 284 283 282 281 280 280 282 283 282 280 278 278 278 279 281 282 282 284 284 284 283 284 284 282 279 277 276 274 270 266 265 264 262 261 261 259 261 263 264 265 266
244 244 243 243 244 245 244 243 241 238 236 235 234 233 234 234 235 235 235 236 237 238 238 239 242 245 247 248 249 250 251 254 258 261 265 268 270 273 275 276 278 279 282 283 284 284 284 283 282 281 282 282 282 281 279 279 280 282 283 283 283 284 284 283 283 284 284 281 279 277 274 272 270 265 262 264 264 262 260 257 259 260 262 263 265
243 244 243 243 244 244 243 239 237 236 234 233 233 234 234 235 235 235 235 235 236 237 238 240 242 245 247 249 250 251 252 254 257 261 264 265 268 271 274 276 278 280 281 283 284 284 284 284 285 285 285 284 284 284 282 280 281 283 284 284 283 283 284 284 284 284 283 281 279 278 275 272 270 264 259 260 263 264 260 257 258 258 259 261 263
242 244 243 244 244 243 240 236 233 234 233 231 231 232 233 233 233 233 233 233 235 237 239 241 243 245 248 251 252 252 253 254 257 259 261 263 266 270 273 275 278 280 281 282 284 284 284 285 285 286 287 288 288 289 288 285 285 284 284 284 285 284 284 284 284 284 283 280 278 277 275 272 270 266 261 258 260 263 260 255 254 256 258 260 261
241 242 242 243 242 241 238 234 232 232 231 230 230 231 231 232 232 232 233 234 236 237 240 242 244 247 249 251 252 252 252 254 257 258 259 261 265 269 272 275 278 279 281 282 283 284 284 284 285 286 287 288 290 291 291 290 289 287 286 286 287 286 284 285 286 286 281 277 274 271 270 269 268 266 263 258 257 260 260 259 258 255 255 259 260
240 240 241 241 240 239 235 232 230 230 229 229 230 230 231 232 232 233 234 235 237 238 241 243 245 248 249 249 249 250 252 254 256 257 258 261 264 268 272 275 277 279 281 282 283 283 283 284 284 285 287 289 290 290 290 290 289 289 289 288 287 287 288 289 287 283 277 274 272 269 267 266 265 264 262 259 257 257 257 262 264 257 253 257 257
239 239 239 238 237 234 231 230 229 228 229 229 229 230 231 232 233 235 236 237 239 240 242 244 244 245 245 245 247 249 253 255 255 256 258 261 264 268 271 274 277 279 280 282 282 283 283 283 285 287 289 290 290 291 291 290 289 289 289 289 289 290 291 289 286 283 278 273 270 268 266 265 264 264 262 258 256 256 255 257 263 262 256 256 256
239 237 235 233 231 230 228 228 227 227 228 229 230 231 232 233 234 236 237 238 239 240 241 241 242 242 244 245 248 251 253 254 254 256 259 262 265 269 272 275 277 279 280 281 282 282 283 284 286 288 290 291 291 292 292 290 290 291 291 290 290 291 291 289 286 284 279 272 267 264 264 263 263 264 263 260 256 254 253 254 260 263 259 257 259
237 235 231 229 228 227 227 227 227 227 228 229 231 232 233 235 236 237 238 238 239 240 240 241 242 243 245 248 250 251 252 253 254 256 259 262 266 269 272 274 277 279 280 281 281 282 283 284 287 289 291 292 293 294 293 292 293 293 292 291 291 292 292 291 289 285 280 274 266 261 260 259 259 260 261 262 259 256 253 251 255 261 261 260 263
234 231 230 228 227 225 225 226 227 227 229 230 232 233 235 236 237 238 239 239 240 241 242 243 243 245 247 249 251 251 251 252 254 256 260 263 266 269 272 274 277 278 279 280 281 282 283 285 287 290 292 294 295 295 294 294 295 295 293 292 293 292 292 291 289 286 282 276 268 261 257 257 257 257 258 259 259 258 255 251 251 257 260 260 260
230 229 228 227 226 224 224 225 226 227 228 231 232 234 235 236 237 238 239 240 241 243 244 245 246 247 249 250 251 251 251 252 254 257 260 263 267 269 271 274 276 278 279 280 281 282 284 286 288 291 293 295 296 297 296 296 296 295 294 294 293 293 292 291 289 286 282 277 271 263 258 257 258 258 258 258 256 256 256 253 252 255 257 257 257
226 226 225 224 224 224 225 225 226 227 228 230 232 234 236 237 238 239 240 241 242 243 245 246 247 248 250 251 251 251 251 252 254 257 260 264 267 269 271 274 276 278 279 280 281 282 284 286 289 292 294 296 297 297 298 297 297 296 295 295 295 294 293 291 288 284 280 275 270 265 258 255 256 257 256 255 253 250 249 252 254 254 255 256 257
225 225 225 225 224 225 226 227 227 228 229 231 233 235 237 238 239 240 240 240 241 242 244 246 247 248 249 250 250 251 251 253 256 258 261 264 266 268 271 274 276 277 278 279 280 282 285 287 290 292 295 297 298 298 299 299 299 298 298 298 297 296 294 291 287 281 277 273 268 264 259 254 253 253 252 251 249 244 241 248 253 253 255 257 258
Height
5876 5877 5877 5878 5878 5878 5879 5879 5880 5880 5880 5880 5880 5881 5882 5883 5883 5884 5884 5885 5885 5886 5886 5887 5887 5888 5888 5888 5889 5889 5889 5890 5890 5890 5890 5890 5891 5891 5891 5891 5891 5891 5891 5892 5892 5892 5892 5892 5892 5892 5892 5891 5891 5891 5891 5891 5891 5890 5890 5890 5890 5889 5889 5889 5888 5888 5887 5887 5887 5887 5886 5886 5885 5884 5883 5883 5882 5881 5880 5880 5879 5879 5879 5878 5877
5877 5877 5877 5878 5878 5879 5879 5879 5880 5880 5880 5880 5881 5881 5882 5882 5883 5883 5884 5884 5885 5885 5886 5886 5887 5887 5887 5888 5888 5889 5889 5890 5890 5890 5890 5891 5891 5891 5891 5891 5891 5891 5891 5892 5892 5892 5892 5892 5892 5892 5892 5891 5891 5891 5891 5891 5891 5890 5890 5890 5890 5890 5889 5889 5888 5888 5887 5887 5887 5887 5886 5885 5885 5884 5883 5883 5882 5882 5881 5880 5880 5879 5879 5878 5877
5877 5877 5878 5878 5878 5879 5879 5879 5880 5880 5880 5881 5881 5881 5882 5882 5883 5883 5884 5884 5884 5885 5885 5886 5886 5887 5887 5888 5888 5888 5889 5889 5889 5890 5890 5890 5891 5891 5891 5891 5891 5891 5891 5891 5892 5891 5892 5892 5892 5892 5892 5891 5891 5891 5891 5891 5891 5890 5890 5890 5890 5890 5889 5889 5888 5888 5887 5886 5886 5886 5886 5885 5885 5884 5883 5882 5882 5881 5881 5881 5880 5880 5879 5878 5877
5876 5877 5878 5878 5878 5879 5879 5879 5880 5880 5880 5881 5881 5882 5882 5882 5883 5883 5883 5884 5884 5884 5885 5885 5885 5886 5886 5887 5887 5888 5888 5888 5889 5889 5890 5890 5890 5890 5891 5891 5891 5891 5891 5891 5891 5891 5891 5891 5891 5891 5891 5891 5891 5890 5891 5891 5891 5890 5890 5890 5890 5890 5890 5889 5888 5888 5887 5886 5886 5885 5885 5885 5885 5884 5883 5882 5881 5880 5880 5880 5880 5879 5879 5878 5877
5876 5877 5877 5878 5878 5879 5879 5879 5879 5880 5880 5880 5881 5881 5882 5882 5882 5883 5883 5883 5884 5884 5884 5885 5885 5885 5886 5886 5887 5887 5887 5888 5888 5889 5889 5889 5890 5890 5890 5890 5890 5890 5891 5891 5891 5891 5891 5891 5891 5890 5890 5891 5891 5890 5890 5890 5890 5890 5890 5890 5890 5890 5890 5889 5888 5888 5887 5886 5886 5885 5885 5885 5885 5884 5884 5883 5882 5881 5880 5880 5879 5879 5878 5877 5877
5875 5876 5877 5877 5878 5878 5878 5879 5879 5879 5880 5880 5880 5881 5881 5882 5882 5882 5883 5883 5883 5883 5884 5884 5884 5885 5885 5886 5886 5887 5887 5887 5887 5888 5888 5888 5889 5889 5889 5890 5890 5890 5890 5891 5890 5890 5891 5891 5890 5890 5890 5890 5890 5890 5890 5889 5889 5889 5890 5890 5889 5889 5889 5889 5888 5888 5887 5887 5886 5886 5885 5885 5885 5884 5884 5884 5883 5881 5880 5880 5879 5878 5877 5876 5876
5874 5875 5876 5877 5877 5878 5878 5878 5878 5879 5879 5879 5879 5880 5880 5881 5882 5882 5882 5882 5882 5883 5883 5883 5884 5884 5885 5885 5886 5886 5886 5886 5887 5887 5887 5887 5888 5888 5889 5889 5889 5889 5889 5890 5890 5889 5890 5890 5889 5889 5889 5889 5889 5889 5889 5889 5889 5889 5889 5889 5889 5888 5888 5888 5888 5888 5887 5887 5886 5886 5885 5885 5884 5884 5883 5883 5883 5881 5880 5880 5879 5878 5877 5876 5875
5873 5874 5875 5876 5876 5877 5877 5877 5878 5878 5878 5879 5879 5879 5879 5880 5880 5881 5881 5882 5882 5882 5882 5883 5883 5883 5884 5884 5885 5885 5886 5886 5886 5886 5886 5886 5887 5887 5887 5888 5888 5888 5888 5889 5889 5888 5888 5889 5888 5888 5888 5888 5888 5888 5888 5888 5888 5888 5888 5888 5888 5888 5887 5886 5887 5887 5887 5886 5886 5885 5885 5884 5884 5883 5883 5882 5882 5881 5880 5880 5879 5878 5877 5876 5875
5872 5872 5873 5874 5875 5876 5876 5876 5877 5877 5877 5877 5878 5878 5878 5879 5879 5879 5880 5880 5881 5881 5881 5882 5882 5883 5883 5883 5884 5884 5885 5885 5885 5885 5885 5885 5886 5886 5886 5887 5887 5887 5887 5888 5888 5887 5887 5888 5887 5887 5887 5887 5887 5887 5887 5887 5887 5887 5887 5887 5887 5886 5886 5886 5886 5886 5885 5885 5885 5885 5884 5884 5883 5883 5882 5881 5881 5881 5880 5879 5879 5878 5876 5876 5875
5870 5871 5872 5872 5873 5874 5875 5875 5875 5876 5876 5876 5876 5877 5877 5878 5878 5878 5879 5879 5879 5880 5880 5880 5881 5881 5882 5882 5883 5883 5884 5884 5884 5884 5885 5885 5885 5885 5885 5886 5886 5886 5886 5887 5887 5887 5886 5887 5886 5886 5886 5886 5886 5886 5886 5886 5886 5886 5886 5886 5885 5885 5885 5885 5885 5885 5884 5884 5884 5884 5883 5883 5883 5882 5881 5881 5880 5880 5879 5878 5878 5877 5876 5875 5875
5869 5870 5871 5871 5872 5873 5873 5873 5874 5874 5874 5875 5875 5875 5876 5876 5877 5877 5878 5878 5878 5878 5879 5879 5880 5880 5881 5881 5882 5882 5882 5883 5883 5883 5883 5883 5884 5884 5884 5884 5885 5885 5885 5885 5885 5886 5885 5885 5885 5885 5884 5884 5884 5884 5884 5884 5884 5885 5885 5885 5884 5884 5884 5884 5884 5884 5884 5883 5883 5883 5883 5883 5883 5882 5881 5880 5880 5879 5878 5878 5877 5876 5875 5875 5874
5867 5868 5869 5870 5871 5871 5871 5872 5872 5872 5873 5873 5873 5874 5874 5874 5875 5876 5877 5877 5877 5877 5878 5878 5879 5879 5879 5880 5880 5881 5881 5882 5882 5882 5882 5882 5883 5883 5883 5883 5883 5883 5883 5884 5884 5884 5884 5884 5884 5884 5883 5883 5883 5883 5883 5883 5883 5883 5883 5883 5883 5882 5882 5882 5882 5882 5882 5882 5882 5882 5882 5882 5882 5882 5880 5879 5879 5878 5877 5877 5876 5875 5874 5874 5873
5865 5866 5867 5868 5869 5870 5870 5870 5871 5871 5871 5872 5872 5872 5873 5873 5873 5874 5875 5876 5876 5876 5877 5877 5877 5878 5878 5879 5879 5880 5880 5880 5881 5881 5881 5881 5882 5882 5881 5881 5882 5882 5882 5882 5882 5882 5882 5882 5882 5882 5882 5882 5882 5882 5882 5882 5881 5881 5882 5881 5881 5881 5881 5881 5881 5881 5881 5881 5881 5881 5881 5881 5881 5881 5879 5878 5878 5877 5877 5876 5875 5874 5874 5873 5872
5864 5864 5865 5867 5867 5868 5869 5869 5869 5869 5870 5870 5870 5871 5871 5871 5872 5872 5873 5874 5875 5875 5876 5876 5877 5877 5877 5878 5878 5879 5879 5879 5880 5880 5880 5880 5880 5880 5880 5880 5880 5880 5880 5880 5880 5880 5880 5880 5880 5880 5880 5880 5880 5880 5880 5880 5880 5880 5880 5880 5879 5879 5879 5879 5879 5879 5879 5879 5879 5879 5879 5879 5879 5879 5878 5877 5877 5876 5876 5875 5874 5874 5873 5872 5871
5863 5863 5864 5865 5866 5867 5867 5867 5867 5867 5868 5868 5869 5869 5869 5870 5870 5870 5871 5872 5873 5874 5875 5875 5876 5876 5877 5877 5877 5878 5878 5878 5878 5879 5879 5879 5879 5879 5879 5879 5879 5879 5879 5878 5878 5878 5878 5878 5878 5878 5878 5878 5879 5879 5878 5878 5878 5878 5878 5878 5877 5877 5877 5877 5877 5877 5877 5877 5877 5877 5877 5877 5877 5877 5876 5876 5876 5875 5875 5874 5873 5873 5872 5871 5870
5861 5862 5862 5863 5864 5865 5865 5865 5865 5865 5866 5866 5867 5867 5868 5868 5869 5869 5869 5870 5871 5872 5873 5874 5875 5876 5876 5876 5877 5877 5877 5877 5877 5877 5878 5878 5878 5878 5878 5878 5878 5878 5877 5877 5877 5876 5876 5877 5876 5876 5876 5876 5877 5877 5877 5876 5877 5876 5876 5876 5875 5875 5875 5875 5875 5875 5875 5875 5875 5875 5875 5875 5875 5875 5875 5875 5874 5874 5874 5873 5872 5872 5871 5870 5869
5859 5860 5860 5861 5862 5863 5863 5863 5863 5863 5864 5865 5865 5866 5866 5867 5867 5868 5868 5869 5870 5871 5872 5873 5874 5874 5875 5875 5876 5876 5876 5876 5876 5876 5876 5876 5877 5876 5876 5876 5876 5876 5875 5875 5875 5875 5874 5875 5874 5874 5874 5874 5874 5875 5875 5875 5875 5875 5874 5874 5874 5873 5873 5873 5873 5873 5873 5873 5873 5873 5873 5873 5873 5873 5873 5873 5873 5872 5872 5872 5871 5870 5870 5869 5868
5857 5858 5859 5859 5860 5861 5861 5861 5862 5862 5862 5863 5863 5864 5865 5865 5866 5866 5867 5868 5868 5869 5870 5871 5872 5873 5873 5874 5874 5874 5874 5875 5875 5875 5875 5875 5875 5875 5875 5875 5875 5874 5874 5873 5873 5873 5873 5873 5872 5872 5872 5872 5872 5873 5873 5873 5873 5873 5872 5872 5872 5872 5871 5871 5871 5871 5871 5871 5871 5871 5872 5871 5871 5871 5871 5871 5871 5870 5870 5870 5870 5869 5868 5867 5867
5856 5857 5857 5857 5858 5859 5859 5859 5860 5860 5861 5861 5862 5862 5863 5864 5865 5865 5866 5866 5867 5868 5869 5869 5870 5871 5871 5872 5872 5872 5872 5873 5873 5873 5873 5873 5873 5873 5873 5873 5873 5873 5872 5872 5871 5871 5871 5871 5871 5870 5870 5870 5870 5871 5871 5871 5871 5871 5871 5870 5870 5870 5870 5870 5869 5869 5869 5869 5869 5869 5870 5869 5869 5869 5869 5868 5868 5868 5868 5868 5867 5867 5866 5866 5865
5854 5854 5855 5855 5856 5856 5857 5857 5858 5858 5859 5859 5860 5861 5862 5863 5863 5864 5865 5865 5866 5866 5867 5868 5869 5869 5869 5870 5870 5870 5870 5870 5870 5871 5871 5871 5871 5871 5872 5872 5872 5872 5871 5870 5870 5870 5869 5869 5869 5869 5869 5869 5869 5869 5869 5869 5869 5869 5868 5868 5868 5868 5868 5868 5868 5868 5867 5867 5867 5867 5867 5867 5867 5867 5867 5866 5866 5866 5866 5866 5865 5865 5864 5864 5863
5851 5852 5853 5853 5854 5854 5855 5855 5856 5857 5857 5858 5858 5859 5860 5861 5862 5863 5863 5864 5864 5865 5866 5866 5867 5867 5867 5868 5868 5868 5868 5869 5869 5869 5869 5869 5869 5870 5870 5870 5870 5870 5870 5869 5868 5868 5868 5867 5867 5867 5867 5867 5867 5867 5867 5867 5867 5867 5866 5866 5865 5865 5865 5865 5865 5865 5865 5865 5865 5865 5865 5865 5865 5865 5864 5864 5864 5864 5864 5863 5863 5863 5862 5862 5861
5849 5850 5850 5851 5852 5852 5853 5853 5854 5855 5855 5856 5856 5857 5858 5859 5860 5861 5862 5862 5863 5864 5864 5865 5865 5865 5866 5866 5866 5866 5867 5867 5867 5867 5867 5867 5868 5868 5868 5869 5869 5869 5868 5868 5867 5867 5866 5866 5866 5866 5865 5865 5865 5865 5865 5865 5865 5865 5864 5864 5863 5863 5863 5863 5863 5863 5863 5863 5863 5863 5862 5862 5862 5862 5862 5862 5861 5861 5861 5861 5861 5861 5860 5860 5859
5846 5847 5847 5848 5849 5850 5851 5851 5852 5852 5853 5854 5854 5855 5856 5857 5858 5859 5860 5861 5861 5862 5862 5863 5863 5864 5864 5864 5864 5865 5865 5865 5865 5865 5865 5865 5866 5866 5867 5867 5867 5867 5867 5866 5866 5865 5865 5864 5864 5864 5864 5863 5863 5863 5863 5863 5863 5863 5862 5862 5862 5861 5861 5861 5861 5861 5860 5860 5860 5860 5858 5859 5860 5859 5859 5859 5859 5859 5858 5858 5858 5858 5858 5858 5857
5843 5844 5845 5846 5847 5848 5848 5849 5850 5850 5851 5852 5852 5853 5854 5855 5856 5857 5858 5859 5859 5860 5861 5861 5862 5862 5862 5863 5863 5863 5863 5863 5863 5863 5864 5864 5864 5865 5865 5865 5865 5865 5865 5864 5864 5864 5863 5863 5862 5862 5862 5862 5861 5861 5861 5861 5861 5861 5861 5860 5860 5859 5859 5859 5858 5858 5858 5857 5858 5857 5856 5856 5857 5857 5857 5857 5856 5856 5856 5855 5855 5856 5855 5855 5855
5841 5842 5844 5844 5844 5845 5846 5847 5847 5848 5849 5849 5850 5851 5852 5853 5854 5855 5856 5856 5857 5858 5859 5859 5860 5860 5861 5861 5861 5861 5861 5861 5862 5862 5862 5862 5862 5863 5863 5863 5863 5863 5863 5862 5862 5862 5861 5861 5861 5860 5860 5860 5860 5860 5860 5859 5859 5859 5859 5859 5858 5857 5857 5857 5856 5856 5856 5855 5855 5855 5854 5854 5854 5854 5854 5854 5854 5854 5853 5853 5853 5853 5853 5853 5852
5838 5839 5841 5842 5842 5843 5843 5844 5844 5845 5846 5847 5847 5848 5849 5850 5851 5852 5853 5854 5855 5856 5857 5857 5858 5858 5859 5859 5859 5860 5860 5859 5860 5860 5860 5860 5860 5861 5861 5861 5861 5861 5861 5860 5860 5860 5860 5859 5858 5858 5858 5858 5858 5858 5858 5857 5857 5857 5857 5857 5856 5856 5855 5855 5854 5854 5854 5853 5853 5853 5853 5852 5852 5851 5851 5851 5851 5851 5851 5850 5850 5850 5850 5850 5850
5835 5837 5838 5839 5840 5840 5840 5841 5842 5842 5843 5844 5845 5846 5847 5848 5849 5850 5851 5852 5853 5854 5854 5855 5856 5856 5857 5857 5857 5857 5857 5857 5857 5857 5858 5858 5858 5859 5859 5859 5859 5859 5859 5858 5858 5857 5857 5857 5856 5856 5856 5856 5856 5856 5855 5855 5855 5855 5855 5855 5854 5853 5853 5853 5852 5852 5851 5851 5850 5850 5851 5851 5850 5849 5849 5849 5848 5848 5848 5848 5847 5847 5847 5847 5847
5832 5834 5835 5835 5836 5837 5837 5838 5839 5840 5840 5841 5843 5844 5845 5845 5846 5848 5849 5849 5850 5851 5852 5853 5853 5854 5854 5855 5855 5855 5855 5855 5855 5855 5855 5856 5856 5856 5857 5856 5856 5856 5856 5856 5856 5855 5854 5854 5854 5853 5853 5854 5854 5853 5853 5853 5853 5853 5852 5852 5852 5851 5851 5851 5850 5849 5849 5848 5848 5848 5848 5849 5848 5847 5846 5846 5845 5846 5846 5845 5845 5845 5845 5845 5845
5829 5831 5831 5832 5832 5833 5834 5835 5836 5837 5838 5839 5840 5841 5842 5843 5844 5845 5846 5847 5848 5848 5849 5850 5851 5852 5852 5852 5853 5853 5853 5853 5852 5852 5853 5853 5853 5854 5854 5854 5854 5853 5853 5854 5853 5853 5852 5852 5852 5851 5851 5851 5851 5851 5850 5850 5850 5850 5850 5849 5849 5849 5849 5849 5848 5847 5846 5845 5845 5845 5845 5846 5845 5844 5844 5843 5842 5843 5843 5842 5842 5842 5842 5842 5842
5825 5826 5826 5828 5828 5828 5831 5832 5833 5834 5835 5836 5837 5838 5839 5840 5841 5842 5843 5844 5845 5845 5846 5848 5848 5849 5849 5850 5850 5850 5850 5850 5850 5850 5850 5851 5851 5851 5851 5851 5851 5851 5851 5850 5850 5850 5850 5849 5849 5849 5849 5849 5848 5848 5848 5847 5847 5847 5847 5847 5846 5846 5847 5847 5846 5845 5844 5843 5843 5842 5842 5842 5841 5841 5841 5840 5840 5839 5839 5839 5839 5839 5839 5840 5839
5820 5821 5823 5824 5824 5825 5827 5829 5829 5830 5831 5833 5834 5835 5836 5837 5838 5839 5840 5841 5842 5843 5844 5845 5845 5846 5846 5847 5847 5848 5848 5848 5847 5848 5848 5848 5849 5849 5848 5849 5848 5848 5848 5848 5847 5847 5847 5847 5847 5847 5846 5846 5846 5845 5845 5844 5844 5844 5844 5843 5843 5843 5844 5844 5843 5842 5841 5840 5840 5840 5840 5839 5838 5838 5838 5837 5837 5836 5836 5836 5836 5836 5836 5837 5837
5816 5818 5818 5818 5820 5822 5823 5824 5825 5827 5828 5830 5831 5831 5833 5834 5835 5836 5837 5838 5839 5840 5841 5842 5843 5843 5844 5844 5844 5845 5845 5845 5845 5845 5846 5846 5846 5846 5846 5846 5846 5845 5845 5845 5845 5845 5844 5844 5844 5844 5844 5843 5843 5842 5841 5841 5841 5841 5840 5840 5840 5840 5841 5841 5841 5839 5838 5837 5837 5837 5836 5836 5835 5835 5834 5834 5834 5833 5833 5833 5832 5833 5833 5834 5833
5812 5813 5813 5814 5816 5818 5819 5820 5821 5822 5824 5826 5827 5828 5829 5830 5831 5832 5834 5834 5836 5837 5838 5838 5839 5840 5841 5841 5841 5842 5842 5842 5842 5843 5843 5844 5844 5844 5844 5843 5843 5842 5842 5842 5842 5842 5842 5842 5842 5841 5841 5840 5840 5839 5838 5838 5838 5838 5837 5837 5836 5837 5837 5837 5837 5836 5835 5834 5833 5833 5833 5832 5832 5831 5831 5831 5831 5830 5831 5830 5829 5829 5830 5830 5830
5808 5808 5809 5810 5813 5814 5814 5815 5816 5818 5820 5822 5824 5824 5825 5826 5827 5829 5830 5831 5832 5834 5834 5835 5836 5837 5838 5838 5838 5839 5839 5839 5840 5840 5840 5841 5841 5841 5841 5840 5840 5839 5839 5839 5839 5839 5839 5839 5839 5839 5839 5838 5837 5836 5835 5835 5834 5834 5834 5833 5833 5833 5833 5833 5833 5833 5831 5830 5829 5829 5829 5829 5829 5828 5828 5828 5827 5827 5827 5827 5826 5827 5827 5826 5827
5803 5804 5805 5806 5807 5809 5810 5811 5812 5814 5816 5818 5820 5821 5822 5822 5823 5825 5826 5827 5828 5830 5831 5832 5832 5834 5834 5835 5835 5836 5836 5837 5837 5837 5838 5838 5838 5838 5838 5837 5837 5836 5836 5836 5836 5836 5836 5836 5836 5836 5836 5835 5834 5833 5832 5832 5831 5830 5830 5830 5829 5829 5829 5829 5829 5828 5828 5826 5825 5824 5825 5825 5825 5824 5824 5824 5823 5824 5824 5823 5823 5823 5823 5823 5824
5797 5799 5800 5800 5801 5804 5806 5807 5808 5810 5812 5814 5816 5817 5818 5818 5819 5820 5822 5823 5824 5826 5827 5828 5829 5830 5831 5832 5832 5833 5833 5833 5834 5834 5834 5835 5835 5835 5834 5834 5834 5833 5833 5833 5833 5833 5833 5833 5832 5832 5832 5831 5831 5830 5829 5828 5827 5827 5826 5826 5826 5825 5825 5824 5824 5824 5823 5822 5820 5820 5819 5820 5821 5821 5820 5819 5819 5819 5820 5820 5819 5819 5819 5820 5821
5791 5792 5793 5794 5796 5798 5801 5802 5804 5806 5807 5809 5811 5812 5813 5814 5815 5816 5817 5819 5820 5822 5822 5824 5825 5827 5828 5828 5828 5829 5830 5830 5830 5831 5831 5831 5831 5831 5831 5830 5830 5830 5830 5830 5830 5830 5830 5829 5829 5828 5828 5827 5827 5826 5825 5824 5823 5823 5822 5822 5821 5821 5821 5820 5819 5819 5818 5817 5816 5815 5815 5815 5816 5816 5816 5815 5815 5815 5815 5816 5815 5815 5816 5817 5817
5785 5786 5787 5788 5791 5793 5795 5797 5798 5800 5802 5804 5805 5807 5809 5810 5811 5812 5813 5815 5816 5817 5818 5820 5822 5822 5823 5824 5824 5825 5826 5827 5827 5827 5827 5827 5827 5827 5826 5826 5827 5827 5827 5827 5827 5826 5826 5826 5825 5825 5824 5823 5823 5822 5821 5821 5819 5819 5819 5818 5817 5816 5817 5816 5814 5813 5813 5812 5811 5811 5810 5810 5811 5812 5813 5812 5811 5810 5810 5811 5811 5811 5812 5813 5813
5779 5781 5781 5782 5785 5787 5789 5791 5793 5795 5797 5798 5800 5801 5804 5806 5807 5808 5810 5812 5813 5814 5814 5816 5817 5818 5819 5820 5820 5821 5822 5823 5823 5823 5823 5823 5823 5823 5823 5823 5823 5824 5824 5824 5824 5823 5823 5822 5822 5821 5820 5819 5819 5818 5817 5817 5815 5814 5814 5814 5813 5812 5811 5811 5809 5808 5808 5807 5807 5806 5805 5804 5806 5807 5808 5808 5807 5806 5806 5807 5807 5807 5808 5809 5809
5772 5774 5775 5776 5779 5782 5784 5786 5788 5790 5791 5793 5795 5797 5800 5802 5804 5805 5807 5808 5808 5809 5810 5811 5812 5814 5815 5816 5816 5817 5818 5819 5819 5819 5819 5819 5819 5819 5819 5819 5820 5820 5820 5820 5820 5820 5819 5819 5818 5817 5816 5816 5815 5814 5813 5812 5811 5810 5810 5809 5809 5808 5806 5805 5804 5803 5802 5801 5801 5801 5800 5799 5801 5803 5803 5803 5803 5802 5802 5802 5803 5803 5804 5804 5805
5766 5768 5770 5772 5774 5777 5779 5780 5782 5784 5786 5789 5791 5794 5796 5799 5800 5802 5803 5803 5802 5803 5805 5807 5808 5809 5811 5812 5813 5813 5814 5815 5815 5815 5815 5816 5816 5816 5816 5816 5817 5817 5817 5816 5816 5816 5815 5815 5814 5813 5812 5812 5811 5810 5810 5808 5807 5806 5806 5805 5804 5803 5801 5800 5799 5798 5797 5795 5794 5795 5795 5794 5795 5797 5798 5798 5798 5797 5797 5798 5798 5799 5799 5799 5800
5759 5761 5764 5766 5768 5771 5773 5774 5776 5778 5782 5784 5787 5789 5792 5794 5795 5796 5796 5795 5796 5799 5801 5802 5804 5805 5807 5808 5808 5809 5809 5810 5811 5812 5812 5812 5812 5812 5812 5813 5813 5813 5813 5812 5812 5811 5811 5810 5810 5809 5808 5807 5807 5806 5805 5804 5803 5802 5801 5800 5799 5798 5798 5795 5794 5793 5792 5791 5790 5789 5789 5789 5789 5791 5792 5793 5793 5793 5793 5793 5793 5794 5794 5795 5796
5751 5754 5757 5759 5761 5764 5767 5769 5771 5774 5777 5780 5782 5785 5787 5788 5789 5789 5789 5790 5792 5795 5796 5798 5800 5801 5803 5803 5803 5804 5804 5806 5807 5808 5809 5809 5809 5809 5809 5809 5809 5809 5809 5808 5808 5807 5806 5806 5805 5804 5803 5803 5802 5801 5800 5799 5798 5798 5797 5795 5794 5793 5793 5792 5790 5789 5786 5784 5784 5784 5783 5783 5783 5784 5785 5786 5788 5788 5788 5788 5789 5789 5790 5790 5793
5744 5748 5750 5752 5755 5759 5761 5764 5766 5769 5772 5774 5777 5779 5781 5781 5782 5782 5783 5785 5788 5790 5792 5794 5797 5798 5798 5798 5798 5798 5800 5802 5803 5804 5805 5804 5805 5805 5805 5805 5805 5805 5805 5804 5804 5803 5802 5801 5800 5799 5799 5798 5797 5796 5795 5794 5793 5792 5791 5789 5788 5787 5787 5787 5786 5784 5781 5777 5776 5777 5778 5778 5778 5778 5779 5781 5782 5783 5784 5784 5784 5785 5785 5786 5788
5737 5741 5743 5746 5750 5753 5756 5758 5761 5764 5766 5769 5771 5772 5774 5775 5776 5778 5780 5782 5785 5787 5789 5791 5792 5792 5792 5792 5792 5794 5796 5798 5799 5800 5800 5800 5800 5801 5801 5801 5801 5801 5801 5800 5799 5798 5797 5797 5796 5795 5794 5793 5792 5791 5791 5789 5788 5787 5785 5783 5782 5780 5780 5780 5779 5778 5777 5774 5771 5771 5771 5772 5773 5772 5773 5775 5776 5777 5778 5779 5780 5780 5781 5782 5782
5732 5735 5738 5741 5744 5747 5750 5752 5755 5758 5761 5763 5764 5766 5768 5769 5771 5774 5776 5779 5781 5783 5785 5785 5786 5786 5786 5787 5789 5791 5793 5794 5795 5795 5796 5795 5796 5796 5797 5797 5797 5797 5796 5796 5795 5794 5793 5792 5791 5790 5789 5788 5787 5787 5786 5784 5782 5781 5779 5777 5776 5774 5772 5771 5771 5771 5771 5770 5767 5765 5765 5766 5767 5766 5767 5768 5770 5771 5773 5775 5776 5776 5776 5777 5779
5727 5729 5731 5735 5738 5741 5744 5747 5750 5753 5755 5756 5758 5760 5762 5764 5767 5770 5772 5774 5776 5778 5779 5780 5781 5781 5781 5783 5786 5788 5789 5790 5791 5791 5791 5791 5791 5792 5792 5792 5792 5792 5792 5791 5790 5789 5788 5787 5787 5786 5785 5784 5783 5782 5780 5779 5777 5775 5773 5771 5769 5767 5765 5762 5761 5761 5762 5763 5762 5759 5758 5758 5759 5760 5760 5761 5763 5765 5768 5770 5771 5771 5771 5773 5775
5721 5722 5726 5729 5732 5736 5739 5742 5745 5747 5749 5750 5752 5755 5757 5760 5762 5765 5767 5769 5771 5772 5773 5775 5776 5777 5778 5780 5782 5784 5785 5786 5786 5786 5786 5786 5787 5788 5788 5788 5788 5788 5787 5787 5786 5784 5783 5783 5782 5781 5780 5779 5778 5776 5774 5773 5771 5770 5767 5765 5762 5760 5758 5755 5752 5750 5750 5752 5753 5752 5752 5752 5752 5753 5754 5755 5757 5759 5761 5764 5766 5766 5766 5768 5770
5715 5717 5720 5723 5726 5730 5732 5735 5738 5741 5743 5745 5747 5750 5752 5755 5757 5759 5762 5764 5766 5767 5768 5770 5771 5772 5774 5776 5778 5780 5780 5781 5781 5782 5782 5782 5783 5783 5783 5784 5784 5783 5783 5782 5781 5780 5779 5778 5777 5776 5775 5774 5772 5770 5769 5767 5765 5763 5760 5758 5756 5752 5749 5747 5745 5742 5740 5740 5742 5744 5745 5745 5745 5746 5748 5749 5751 5754 5756 5758 5759 5760 5761 5763 5765
5709 5711 5714 5716 5719 5723 5725 5729 5732 5735 5738 5740 5742 5745 5747 5749 5752 5755 5757 5759 5761 5762 5763 5765 5767 5768 5770 5772 5774 5775 5775 5776 5776 5777 5777 5778 5778 5778 5779 5779 5779 5779 5778 5777 5776 5775 5774 5773 5772 5771 5770 5768 5766 5765 5763 5761 5758 5756 5753 5750 5748 5744 5740 5738 5735 5733 5731 5730 5730 5733 5735 5736 5736 5739 5742 5743 5744 5747 5750 5751 5753 5754 5756 5758 5760
5702 5705 5708 5711 5714 5717 5720 5724 5727 5729 5732 5734 5737 5739 5742 5744 5747 5750 5752 5754 5756 5757 5759 5760 5762 5764 5765 5767 5768 5769 5770 5771 5771 5772 5773 5773 5773 5774 5775 5775 5774 5774 5774 5773 5771 5770 5769 5768 5767 5766 5765 5763 5761 5759 5757 5755 5752 5749 5745 5742 5739 5735 5731 5728 5726 5723 5721 5719 5719 5721 5724 5726 5727 5729 5732 5734 5736 5739 5743 5745 5746 5749 5751 5754 5755